EDT,Max TemperatureF,Mean TemperatureF,Min TemperatureF,Max Dew PointF,MeanDew PointF,Min DewpointF,Max Humidity, Mean Humidity, Min Humidity, Max Sea Level PressureIn, Mean Sea Level PressureIn, Min Sea Level PressureIn, Max VisibilityMiles, Mean VisibilityMiles, Min VisibilityMiles, Max Wind SpeedMPH, Mean Wind SpeedMPH, Max Gust SpeedMPH,PrecipitationIn, CloudCover, Events, WindDirDegrees
2013-7-1,82,76,69,72,69,68,100,84,67,29.99,29.93,29.89,10,8,2,14,6,18,0.18,7,Rain,172
2013-7-2,78,74,70,72,70,69,100,88,76,30.19,30.08,29.98,10,9,4,15,8,20,0.14,7,Rain,180
2013-7-3,85,78,71,73,71,69,100,83,65,30.26,30.21,30.15,10,6,1,6,3,7,1.05,7,Rain-Thunderstorm,182
2013-7-4,87,79,71,74,71,68,94,74,53,30.28,30.23,30.17,10,8,2,22,8,26,0.16,5,Rain,194
2013-7-5,87,79,71,72,71,69,93,74,55,30.26,30.21,30.15,10,9,6,16,8,23,0.07,2,Rain,195
2013-7-6,88,79,70,73,70,66,100,76,51,30.22,30.16,30.09,10,9,3,16,7,21,0.00,1,Rain,201
2013-7-7,88,80,71,72,70,66,93,75,57,30.12,30.08,30.02,10,10,10,18,6,24,0.03,2,Rain-Thunderstorm,208
2013-7-8,85,77,68,72,68,64,100,76,51,30.14,30.10,30.07,10,10,2,16,2,24,0.37,2,Rain-Thunderstorm,191
2013-7-9,85,77,69,74,70,68,100,81,61,30.12,30.08,30.02,10,9,2,9,3,29,0.01,2,Rain,214
2013-7-10,89,80,71,75,72,68,100,81,61,30.03,29.97,29.91,10,8,1,22,5,29,0.28,5,Rain,198
2013-7-11,84,78,71,72,70,69,100,83,65,29.94,29.91,29.86,10,8,1,15,4,17,0.48,7,Rain-Thunderstorm,191
2013-7-12,72,69,65,70,66,63,93,89,84,30.06,29.98,29.91,10,6,2,18,4,24,0.57,8,Rain,14
2013-7-13,83,74,64,73,67,64,100,84,67,30.25,30.15,30.06,10,8,0,9,2,20,0.07,6,Fog-Rain,89
2013-7-14,87,79,71,72,71,68,100,78,55,30.36,30.30,30.25,10,5,0,10,3,16,T,5,Fog-Rain,104
2013-7-15,91,80,68,74,70,68,100,75,49,30.32,30.28,30.22,10,10,2,7,2,10,0.00,1,,200
2013-7-16,92,82,71,77,73,70,94,73,52,30.25,30.22,30.17,10,10,9,10,2,17,0.00,2,,28
2013-7-17,91,82,73,77,74,71,100,76,52,30.23,30.18,30.12,10,8,4,7,2,14,0.00,2,Thunderstorm,283
2013-7-18,93,83,73,76,73,71,94,75,56,30.14,30.09,30.03,10,7,2,14,1,16,0.00,0,Thunderstorm,209
2013-7-19,93,84,75,76,73,70,94,75,56,30.04,29.98,29.91,10,8,5,15,3,20,0.00,0,,207
2013-7-20,92,83,74,73,71,67,87,70,52,29.94,29.89,29.84,10,9,7,15,5,18,T,1,Rain-Thunderstorm,206
2013-7-21,89,80,70,72,70,68,93,73,52,29.95,29.93,29.89,10,10,9,17,2,28,0.05,2,Rain,191
2013-7-22,87,79,71,73,71,70,100,81,61,29.96,29.89,29.77,10,6,0,14,4,17,0.01,6,Fog-Rain,185
2013-7-23,89,81,72,71,68,65,93,70,46,29.76,29.72,29.67,10,10,0,9,4,15,0.00,2,,228
2013-7-24,85,76,67,70,67,64,97,78,58,29.92,29.79,29.69,10,10,6,5,4,7,0.05,3,Rain-Thunderstorm,31
2013-7-25,80,71,61,63,57,53,93,70,47,30.05,29.97,29.90,10,10,10,15,6,21,0.00,3,,36
2013-7-26,83,70,57,64,59,56,100,72,43,30.11,30.06,30.03,10,9,0,12,3,16,0.00,1,Fog,197
2013-7-27,77,71,64,69,66,64,100,87,74,30.05,29.99,29.94,10,10,7,13,3,17,0.01,6,Rain,199
2013-7-28,85,77,68,70,67,63,93,72,51,29.99,29.92,29.89,10,8,2,16,5,26,0.12,4,Rain,182
2013-7-29,82,71,60,68,59,47,100,66,32,30.17,30.07,29.99,10,8,2,8,3,13,0.00,1,,352
2013-7-30,81,69,57,63,59,54,97,70,42,30.24,30.19,30.15,10,10,3,12,3,15,0.00,1,,198
2013-7-31,79,71,63,68,65,62,100,85,69,30.16,30.09,30.02,10,8,4,10,3,14,0.06,5,Rain,179